Lima, OH

2:40 PM EST on February 26, 2017 (GMT -0500)
Lima Allen County

Weather History for KAOH - August, 2013

Change the Weather History Date:

Saturday, August 31, 2013

  Actual Average (KFDY) Record (KFDY)
Temperature  
Mean Temperature 76 °F -  
Max Temperature 86 °F 79 °F 102 °F (1951)
Min Temperature 69 °F 59 °F 49 °F (1976)
Cooling Degree Days 12    
Growing Degree Days 26 (Base 50)    
Moisture  
Dew Point 69 °F    
Average Humidity 75    
Maximum Humidity 85    
Minimum Humidity 65    
Precipitation  
Precipitation 0.16 in - - ()
Sea Level Pressure  
Sea Level Pressure 29.82 in    
Wind  
Wind Speed 6 mph (SW)    
Max Wind Speed 16 mph    
Max Gust Speed 21 mph    
Visibility 8 miles    
Events Rain , Thunderstorm    
Averages and records for this station are not official NWS values.
T = Trace of Precipitation, MM = Missing Value Source: NWS Daily Summary

Daily Weather History Graph

Daily Weather History Graph

Search for Another Location

Airport or City:

Trip Planner

Search our weather history database for the weather conditions in past years. The results will help you decide how hot, cold, wet, or windy it might be!

Date:

Astronomy

Aug. 31, 2013 Rise Set
Actual Time 7:02 AM EDT 8:09 PM EDT
Civil Twilight 6:34 AM EDT 8:37 PM EDT
Nautical Twilight 6:00 AM EDT 9:11 PM EDT
Astronomical Twilight 5:25 AM EDT 9:46 PM EDT
Moon 2:29 AM EDT (8/31) 5:08 PM EDT (8/31)
Length of Visible Light 14h 03m
Length of Day
13h 07m
Waning Crescent, 21% of the Moon is Illuminated
Aug 31
Waning Crescent
Sep 5
New
Sep 12
First Quarter
Sep 19
Full
Sep 26
Last Quarter

Hourly Weather History & Observations

Time (EDT) Temp. Heat Index Dew Point Humidity Pressure Visibility Wind Dir Wind Speed Gust Speed Precip Events Conditions
12:53 AM 77.0 °F - 66.0 °F 69% 29.78 in 9.0 mi South 8.1 mph - N/A   Clear
1:19 AM 77.0 °F - 66.2 °F 69% 29.81 in 9.0 mi South 6.9 mph - N/A Thunderstorm Clear
1:31 AM 77.0 °F - 66.2 °F 69% 29.82 in - SW 5.8 mph - N/A Thunderstorm Thunderstorm
1:53 AM 75.9 °F - 69.1 °F 79% 29.81 in 1.8 mi SW 6.9 mph - 0.11 in Rain , Thunderstorm Heavy Thunderstorms and Rain
1:59 AM 75.2 °F - 69.8 °F 83% 29.82 in 3.0 mi South 9.2 mph - 0.02 in Rain , Thunderstorm Thunderstorms and Rain
2:34 AM 75.2 °F - 68.0 °F 78% 29.81 in 10.0 mi SSW 8.1 mph - 0.02 in   Clear
2:53 AM 75.9 °F - 69.1 °F 79% 29.80 in 10.0 mi West 3.5 mph - 0.02 in Rain Light Rain
3:53 AM 73.0 °F - 66.9 °F 81% 29.82 in 8.0 mi East 10.4 mph 20.7 mph 0.03 in Rain Light Rain
4:53 AM 70.0 °F - 63.0 °F 78% 29.78 in 10.0 mi South 4.6 mph - 0.00 in   Clear
5:36 AM 69.8 °F - 62.6 °F 78% 29.82 in 10.0 mi South 6.9 mph - N/A   Mostly Cloudy
5:51 AM 69.8 °F - 62.6 °F 78% 29.83 in 10.0 mi South 8.1 mph - N/A   Scattered Clouds
5:53 AM 70.0 °F - 62.1 °F 76% 29.81 in 10.0 mi South 6.9 mph - N/A   Scattered Clouds
6:53 AM 70.0 °F - 62.1 °F 76% 29.81 in 10.0 mi WSW 3.5 mph - N/A   Clear
7:53 AM 73.0 °F - 66.9 °F 81% 29.81 in 7.0 mi SW 5.8 mph - N/A   Mostly Cloudy
8:53 AM 73.9 °F - 69.1 °F 85% 29.83 in 7.0 mi WSW 6.9 mph - N/A   Scattered Clouds
9:53 AM 77.0 °F - 71.1 °F 82% 29.85 in 6.0 mi West 5.8 mph - N/A   Haze
10:37 AM 78.8 °F - 71.6 °F 78% 29.87 in 5.0 mi Variable 5.8 mph - N/A   Haze
10:53 AM 78.1 °F - 71.1 °F 79% 29.85 in 5.0 mi West 6.9 mph - N/A   Haze
11:53 AM 80.1 °F 83.8 °F 72.0 °F 76% 29.84 in 4.0 mi WNW 4.6 mph - N/A   Haze
12:01 PM 80.6 °F 85.4 °F 73.4 °F 79% 29.86 in 5.0 mi Variable 3.5 mph - N/A   Haze
12:43 PM 82.4 °F 88.2 °F 73.4 °F 74% 29.85 in 6.0 mi NW 8.1 mph - N/A   Haze
12:53 PM 82.9 °F 88.0 °F 72.0 °F 69% 29.83 in 7.0 mi Variable 4.6 mph - N/A   Scattered Clouds
1:53 PM 84.0 °F 89.6 °F 72.0 °F 67% 29.82 in 9.0 mi Variable 3.5 mph - N/A   Mostly Cloudy
2:04 PM 82.4 °F 87.2 °F 71.6 °F 70% 29.85 in 9.0 mi Variable 4.6 mph - N/A   Mostly Cloudy
2:42 PM 84.2 °F 89.6 °F 71.6 °F 66% 29.84 in 10.0 mi WSW 4.6 mph - N/A   Overcast
2:53 PM 84.0 °F 89.0 °F 71.1 °F 65% 29.82 in 10.0 mi West 5.8 mph - N/A   Overcast
3:18 PM 84.2 °F 89.6 °F 71.6 °F 66% 29.84 in 10.0 mi NW 5.8 mph - N/A   Overcast
3:50 PM 84.2 °F 89.6 °F 71.6 °F 66% 29.84 in 10.0 mi WNW 5.8 mph - N/A   Overcast
3:53 PM 84.0 °F 89.6 °F 72.0 °F 67% 29.81 in 10.0 mi WNW 4.6 mph - N/A   Mostly Cloudy
4:53 PM 82.9 °F 87.5 °F 71.1 °F 67% 29.78 in 10.0 mi Calm Calm - N/A   Clear
5:53 PM 80.1 °F 82.9 °F 69.1 °F 69% 29.83 in 10.0 mi West 16.1 mph 20.7 mph N/A   Mostly Cloudy
6:53 PM 77.0 °F - 66.9 °F 71% 29.77 in 10.0 mi South 3.5 mph - N/A   Clear
7:53 PM 75.0 °F - 68.0 °F 79% 29.78 in 10.0 mi Calm Calm - N/A   Clear
8:53 PM 73.9 °F - 66.0 °F 76% 29.81 in 10.0 mi SSW 5.8 mph - N/A   Partly Cloudy
9:53 PM 73.0 °F - 66.0 °F 79% 29.83 in 10.0 mi West 5.8 mph - N/A   Mostly Cloudy
10:53 PM 71.1 °F - 66.0 °F 84% 29.82 in 10.0 mi Calm Calm - N/A   Partly Cloudy
11:53 PM 71.1 °F - 66.0 °F 84% 29.82 in 10.0 mi Calm Calm - N/A   Clear